Find Starlink 32585

NORAD ID: 61953 Int'l Des: 2024-209 Owner: SPXS Country: US Constellation: starlink operational
LEOCIRCULAR

現在のビュー

3D地球を読み込み中...

About Starlink 32585

Starlink 32585 (NORAD 61953) is a starlink constellation satellite (v2 mini) launched Nov 14, 2024 by SPXS of US. It operates in LEO, CIRCULAR orbit with a mass of 730.00 kg.

次回通過

Passes for default location (London). Set your location on the main map for personalized predictions.

高度履歴

Loading altitude history...

軌道要素

1 61953U 24209Q 26237.55225870 .00025634 00000-0 76648-3 0 9999
2 61953 53.1596 69.2960 0002191 305.3255 54.7542 15.34429222100870
Epoch: Aug 25, 2026 • Age: 7 hours

現在のステータス

高度 474.2 km
遠地点 / 近地点 N/A
速度 7.63 km/s
衛星直下点 -37.01°S, 0.46°E
打ち上げ日 Nov 14, 2024
運用期間 1.7 years
タイプ internet

技術仕様

分類 Payload
質量 730.00 kg
乾燥質量 700.00 kg
総質量 730.00 kg
長さ 0.30 m
直径 4.10 m
スパン 29.00 m
形状 Box + pan
製造者 SPXS
バスタイプ Starlink V2M
フェーズステータス In Orbit
所有者/国 SPXS/US

Most Searched